| time (UTC) | temp C | wind direction | speed KPH | gust KPH | rain 1hr cm | rain 24hr cm | rain mn cm | humidity % | barometer mb |
| 20260902215005 | 15 | 146 | 14.5 | 25.7 | 0.05 | 0.64 | 0.64 | 90 | 1005.5 |
| 20260902214504 | 15 | 178 | 11.3 | 20.9 | 0.05 | 0.64 | 0.64 | 90 | 1005.6 |
| 20260902214005 | 15 | 154 | 9.7 | 20.9 | 0.05 | 0.64 | 0.64 | 90 | 1005.6 |
| 20260902213504 | 15 | 175 | 9.7 | 22.5 | 0.05 | 0.64 | 0.64 | 90 | 1005.6 |
| 20260902213004 | 15 | 174 | 11.3 | 27.4 | 0.05 | 0.61 | 0.61 | 90 | 1005.6 |
| 20260902212505 | 15 | 184 | 11.3 | 20.9 | 0.05 | 0.61 | 0.61 | 90 | 1005.6 |
| 20260902212004 | 15 | 163 | 11.3 | 20.9 | 0.05 | 0.61 | 0.61 | 90 | 1005.6 |
| 20260902211504 | 15 | 151 | 11.3 | 20.9 | 0.05 | 0.61 | 0.61 | 89 | 1005.6 |
| 20260902211004 | 15 | 167 | 12.9 | 22.5 | 0.08 | 0.61 | 0.61 | 89 | 1005.5 |
| 20260902205505 | 15 | 163 | 12.9 | 22.5 | 0.08 | 0.58 | 0.58 | 89 | 1005.5 |
| 20260902205004 | 14 | 176 | 16.1 | 25.7 | 0.08 | 0.58 | 0.58 | 89 | 1005.4 |
| 20260902204504 | 15 | 165 | 16.1 | 22.5 | 0.08 | 0.58 | 0.58 | 90 | 1005.4 |
| 20260902203505 | 14 | 162 | 9.7 | 24.1 | 0.08 | 0.58 | 0.58 | 89 | 1005.4 |
| 20260902202004 | 14 | 179 | 8.0 | 20.9 | 0.08 | 0.56 | 0.56 | 89 | 1005.4 |
| 20260902201005 | 14 | 180 | 9.7 | 24.1 | 0.05 | 0.53 | 0.53 | 89 | 1005.4 |
| 20260902200505 | 14 | 158 | 12.9 | 25.7 | 0.05 | 0.53 | 0.53 | 88 | 1005.4 |
| 20260902200004 | 14 | 159 | 16.1 | 24.1 | 0.08 | 0.53 | 0.53 | 88 | 1005.3 |
| 20260902195504 | 14 | 161 | 11.3 | 20.9 | 0.10 | 0.51 | 0.51 | 88 | 1005.4 |
| 20260902195004 | 15 | 191 | 11.3 | 25.7 | 0.15 | 0.51 | 0.51 | 88 | 1005.4 |
| 20260902194504 | 15 | 185 | 9.7 | 27.4 | 0.15 | 0.51 | 0.51 | 88 | 1005.3 |
| 20260902193504 | 14 | 125 | 9.7 | 16.1 | 0.18 | 0.51 | 0.51 | 89 | 1005.3 |
| 20260902192505 | 14 | 177 | 14.5 | 19.3 | 0.20 | 0.51 | 0.51 | 89 | 1005.5 |
| 20260902192004 | 14 | 184 | 14.5 | 22.5 | 0.18 | 0.48 | 0.48 | 89 | 1005.6 |
| 20260902191505 | 14 | 176 | 6.4 | 20.9 | 0.18 | 0.48 | 0.48 | 89 | 1005.7 |
| 20260902191004 | 14 | 163 | 6.4 | 19.3 | 0.18 | 0.48 | 0.48 | 89 | 1005.7 |
| 20260902190504 | 14 | 133 | 6.4 | 14.5 | 0.18 | 0.48 | 0.48 | 88 | 1005.8 |
| 20260902190004 | 15 | 169 | 11.3 | 16.1 | 0.18 | 0.46 | 0.46 | 88 | 1006.0 |
| 20260902185505 | 15 | 172 | 9.7 | 19.3 | 0.13 | 0.41 | 0.41 | 88 | 1006.1 |
| 20260902185004 | 15 | 172 | 8.0 | 16.1 | 0.10 | 0.36 | 0.36 | 88 | 1006.0 |
| 20260902184504 | 15 | 191 | 9.7 | 16.1 | 0.10 | 0.36 | 0.36 | 88 | 1006.0 |
| 20260902184005 | 15 | 182 | 9.7 | 16.1 | 0.08 | 0.33 | 0.33 | 88 | 1005.9 |
| 20260902183504 | 15 | 151 | 9.7 | 16.1 | 0.10 | 0.33 | 0.33 | 88 | 1006.0 |
| 20260902183005 | 15 | 171 | 9.7 | 14.5 | 0.08 | 0.30 | 0.30 | 88 | 1006.0 |
| 20260902182504 | 15 | 185 | 4.8 | 11.3 | 0.08 | 0.30 | 0.30 | 88 | 1006.0 |
| 20260902182004 | 15 | 150 | 8.0 | 16.1 | 0.10 | 0.30 | 0.30 | 88 | 1006.1 |
| 20260902181505 | 14 | 181 | 8.0 | 16.1 | 0.13 | 0.30 | 0.30 | 88 | 1006.1 |
| 20260902181004 | 14 | 166 | 9.7 | 16.1 | 0.13 | 0.30 | 0.30 | 88 | 1006.2 |
| 20260902180505 | 15 | 155 | 8.0 | 19.3 | 0.18 | 0.30 | 0.30 | 88 | 1006.2 |
| 20260902175504 | 15 | 179 | 9.7 | 19.3 | 0.18 | 0.28 | 0.28 | 88 | 1006.4 |
| 20260902175005 | 15 | 149 | 11.3 | 20.9 | 0.18 | 0.25 | 0.25 | 88 | 1006.4 |
| 20260902174505 | 15 | 134 | 6.4 | 19.3 | 0.20 | 0.25 | 0.25 | 88 | 1006.4 |
| 20260902174004 | 15 | 176 | 8.0 | 14.5 | 0.23 | 0.25 | 0.25 | 88 | 1006.4 |
| 20260902173505 | 15 | 162 | 9.7 | 19.3 | 0.20 | 0.23 | 0.23 | 88 | 1006.5 |
| 20260902173004 | 15 | 158 | 8.0 | 11.3 | 0.23 | 0.23 | 0.23 | 88 | 1006.4 |
| 20260902172504 | 15 | 150 | 4.8 | 16.1 | 0.23 | 0.23 | 0.23 | 88 | 1006.4 |
| 20260902171505 | 15 | 181 | 4.8 | 14.5 | 0.18 | 0.18 | 0.18 | 87 | 1006.4 |
| 20260902170504 | 15 | 182 | 4.8 | 8.0 | 0.13 | 0.13 | 0.13 | 87 | 1006.5 |
| 20260902170005 | 15 | 183 | 3.2 | 8.0 | 0.10 | 0.10 | 0.10 | 86 | 1006.4 |
| 20260902165504 | 15 | 165 | 3.2 | 4.8 | 0.10 | 0.10 | 0.10 | 86 | 1006.5 |
| 20260902164505 | 15 | 155 | 3.2 | 8.0 | 0.05 | 0.05 | 0.05 | 86 | 1006.4 |
| 20260902164004 | 15 | 163 | 3.2 | 4.8 | 0.03 | 0.03 | 0.03 | 85 | 1006.5 |
| 20260902163504 | 15 | 158 | 3.2 | 8.0 | 0.03 | 0.03 | 0.03 | 85 | 1006.5 |
| 20260902163004 | 15 | 171 | 1.6 | 4.8 | 0.00 | 0.00 | 0.00 | 85 | 1006.4 |
| 20260902162504 | 15 | 174 | 3.2 | 8.0 | 0.00 | 0.00 | 0.00 | 85 | 1006.5 |
| 20260902162004 | 15 | 170 | 3.2 | 4.8 | 0.00 | 0.00 | 0.00 | 84 | 1006.4 |
| 20260902161504 | 15 | 202 | 1.6 | 3.2 | 0.00 | 0.00 | 0.00 | 84 | 1006.4 |
| 20260902161004 | 15 | 184 | 3.2 | 4.8 | 0.00 | 0.00 | 0.00 | 83 | 1006.4 |
| 20260902160504 | 15 | 173 | 3.2 | 4.8 | 0.00 | 0.00 | 0.00 | 82 | 1006.4 |
| 20260902160006 | 15 | 171 | 3.2 | 8.0 | 0.00 | 0.00 | 0.00 | 82 | 1006.4 |
| 20260902155504 | 15 | 215 | 3.2 | 4.8 | 0.00 | 0.00 | 0.00 | 82 | 1006.4 |
| 20260902155004 | 15 | 181 | 3.2 | 8.0 | 0.00 | 0.00 | 0.00 | 83 | 1006.4 |
| 20260902154504 | 15 | 159 | 1.6 | 8.0 | 0.00 | 0.00 | 0.00 | 82 | 1006.5 |
| 20260902154004 | 15 | 191 | 3.2 | 3.2 | 0.00 | 0.00 | 0.00 | 83 | 1006.5 |
| 20260902153504 | 15 | 173 | 1.6 | 4.8 | 0.00 | 0.00 | 0.00 | 84 | 1006.6 |
| 20260902152504 | 15 | 192 | 3.2 | 3.2 | 0.00 | 0.00 | 0.00 | 84 | 1006.7 |
| 20260902152005 | 15 | 188 | 1.6 | 3.2 | 0.00 | 0.00 | 0.00 | 84 | 1006.8 |
| 20260902151505 | 15 | 209 | 1.6 | 8.0 | 0.00 | 0.00 | 0.00 | 84 | 1006.8 |
| 20260902151005 | 15 | 190 | 3.2 | 9.7 | 0.00 | 0.00 | 0.00 | 84 | 1007.0 |
| 20260902150504 | 15 | 180 | 4.8 | 9.7 | 0.00 | 0.00 | 0.00 | 84 | 1007.0 |
| 20260902150004 | 15 | 199 | 4.8 | 8.0 | 0.00 | 0.00 | 0.00 | 84 | 1007.0 |
| 20260902145506 | 15 | 196 | 3.2 | 4.8 | 0.00 | 0.00 | 0.00 | 85 | 1007.0 |
| 20260902145004 | 15 | 189 | 3.2 | 3.2 | 0.00 | 0.00 | 0.00 | 85 | 1007.0 |
| 20260902144505 | 14 | 193 | 0.0 | 1.6 | 0.00 | 0.00 | 0.00 | 85 | 1007.0 |
| 20260902144004 | 14 | 193 | 1.6 | 3.2 | 0.00 | 0.00 | 0.00 | 86 | 1007.1 |
| 20260902143504 | 14 | 192 | 0.0 | 3.2 | 0.00 | 0.00 | 0.00 | 86 | 1007.1 |
| 20260902143004 | 14 | 223 | 1.6 | 3.2 | 0.00 | 0.00 | 0.00 | 86 | 1007.1 |
| 20260902142504 | 14 | 223 | 0.0 | 1.6 | 0.00 | 0.00 | 0.00 | 86 | 1007.1 |
| 20260902142004 | 14 | 223 | 1.6 | 3.2 | 0.00 | 0.00 | 0.00 | 86 | 1007.2 |
| 20260902141504 | 14 | 223 | 1.6 | 1.6 | 0.00 | 0.00 | 0.00 | 86 | 1007.3 |
| 20260902140504 | 14 | 223 | 0.0 | 3.2 | 0.00 | 0.00 | 0.00 | 86 | 1007.3 |
| 20260902140005 | 14 | 223 | 1.6 | 3.2 | 0.00 | 0.00 | 0.00 | 86 | 1007.3 |
| 20260902134504 | 14 | 223 | 1.6 | 3.2 | 0.00 | 0.00 | 0.00 | 86 | 1007.6 |
| 20260902134004 | 14 | 202 | 1.6 | 3.2 | 0.00 | 0.00 | 0.00 | 86 | 1007.6 |
| 20260902133004 | 14 | 148 | 0.0 | 0.0 | 0.00 | 0.00 | 0.00 | 86 | 1007.6 |
| 20260902132504 | 14 | 148 | 0.0 | 0.0 | 0.00 | 0.00 | 0.00 | 86 | 1007.6 |
| 20260902132004 | 14 | 148 | 0.0 | 3.2 | 0.00 | 0.00 | 0.00 | 86 | 1007.7 |
| 20260902131504 | 14 | 148 | 0.0 | 3.2 | 0.00 | 0.00 | 0.00 | 86 | 1007.8 |
| 20260902131004 | 14 | 153 | 1.6 | 3.2 | 0.00 | 0.00 | 0.00 | 86 | 1007.9 |
| 20260902130504 | 14 | 213 | 0.0 | 0.0 | 0.00 | 0.00 | 0.00 | 86 | 1008.1 |
| 20260902125504 | 14 | 213 | 0.0 | 3.2 | 0.00 | 0.00 | 0.00 | 86 | 1008.2 |
| 20260902124504 | 14 | 213 | 1.6 | 3.2 | 0.00 | 0.00 | 0.00 | 86 | 1008.4 |
| 20260902124004 | 14 | 213 | 0.0 | 0.0 | 0.00 | 0.00 | 0.00 | 86 | 1008.4 |
| 20260902123504 | 14 | 213 | 0.0 | 3.2 | 0.00 | 0.00 | 0.00 | 86 | 1008.4 |
| 20260902123005 | 14 | 213 | 1.6 | 1.6 | 0.00 | 0.00 | 0.00 | 86 | 1008.5 |
| 20260902122504 | 14 | 156 | 1.6 | 3.2 | 0.00 | 0.00 | 0.00 | 86 | 1008.5 |
| 20260902122004 | 14 | 153 | 0.0 | 0.0 | 0.00 | 0.00 | 0.00 | 86 | 1008.6 |
| 20260902121504 | 14 | 153 | 0.0 | 0.0 | 0.00 | 0.00 | 0.00 | 86 | 1008.7 |
| 20260902121004 | 14 | 153 | 0.0 | 0.0 | 0.00 | 0.00 | 0.00 | 86 | 1008.7 |
| 20260902120504 | 14 | 153 | 0.0 | 0.0 | 0.00 | 0.00 | 0.00 | 86 | 1008.8 |
| 20260902120004 | 14 | 153 | 0.0 | 0.0 | 0.00 | 0.00 | 0.00 | 85 | 1008.9 |
| 20260902115505 | 14 | 153 | 0.0 | 0.0 | 0.00 | 0.00 | 0.00 | 85 | 1008.9 |
| 20260902115004 | 14 | 153 | 0.0 | 0.0 | 0.00 | 0.00 | 0.00 | 85 | 1009.0 |
| 20260902114504 | 14 | 153 | 0.0 | 0.0 | 0.00 | 0.00 | 0.00 | 85 | 1009.1 |
| 20260902113504 | 15 | 153 | 1.6 | 3.2 | 0.00 | 0.00 | 0.00 | 85 | 1009.3 |
| 20260902113004 | 15 | 153 | 0.0 | 0.0 | 0.00 | 0.00 | 0.00 | 85 | 1009.3 |
| 20260902112504 | 15 | 153 | 0.0 | 3.2 | 0.00 | 0.00 | 0.00 | 84 | 1009.3 |
| 20260902112004 | 15 | 171 | 3.2 | 4.8 | 0.00 | 0.00 | 0.00 | 84 | 1009.4 |
| 20260902111504 | 15 | 160 | 3.2 | 4.8 | 0.00 | 0.00 | 0.00 | 84 | 1009.4 |
| 20260902110504 | 15 | 158 | 3.2 | 3.2 | 0.00 | 0.00 | 0.00 | 84 | 1009.5 |
| 20260902105504 | 15 | 141 | 1.6 | 8.0 | 0.00 | 0.00 | 0.00 | 85 | 1009.5 |
| 20260902105004 | 15 | 182 | 1.6 | 3.2 | 0.00 | 0.00 | 0.00 | 85 | 1009.5 |
| 20260902104504 | 15 | 187 | 3.2 | 4.8 | 0.00 | 0.00 | 0.00 | 85 | 1009.6 |
| 20260902104004 | 15 | 198 | 0.0 | 3.2 | 0.00 | 0.00 | 0.00 | 85 | 1009.6 |
| 20260902103504 | 15 | 198 | 1.6 | 4.8 | 0.00 | 0.00 | 0.00 | 85 | 1009.7 |
| 20260902103005 | 14 | 181 | 3.2 | 4.8 | 0.00 | 0.00 | 0.00 | 85 | 1009.7 |
| 20260902102503 | 14 | 186 | 1.6 | 4.8 | 0.00 | 0.00 | 0.00 | 85 | 1009.7 |
| 20260902102004 | 14 | 205 | 1.6 | 3.2 | 0.00 | 0.00 | 0.00 | 85 | 1009.7 |
| 20260902101504 | 14 | 191 | 3.2 | 8.0 | 0.00 | 0.00 | 0.00 | 85 | 1009.8 |
| 20260902101004 | 14 | 188 | 0.0 | 3.2 | 0.00 | 0.00 | 0.00 | 85 | 1009.6 |
| 20260902100004 | 14 | 185 | 3.2 | 4.8 | 0.00 | 0.00 | 0.00 | 85 | 1009.7 |
| 20260902095504 | 14 | 190 | 1.6 | 4.8 | 0.00 | 0.00 | 0.00 | 85 | 1009.8 |
| 20260902095004 | 14 | 202 | 3.2 | 8.0 | 0.00 | 0.00 | 0.00 | 86 | 1009.8 |
| 20260902094504 | 14 | 210 | 3.2 | 8.0 | 0.00 | 0.00 | 0.00 | 86 | 1009.8 |
| 20260902092504 | 13 | 172 | 3.2 | 8.0 | 0.00 | 0.00 | 0.00 | 86 | 1010.0 |
| 20260902091504 | 13 | 185 | 1.6 | 3.2 | 0.00 | 0.00 | 0.00 | 86 | 1010.0 |
| 20260902090504 | 13 | 188 | 1.6 | 3.2 | 0.00 | 0.00 | 0.00 | 85 | 1010.3 |
| 20260902090005 | 13 | 195 | 1.6 | 3.2 | 0.00 | 0.00 | 0.00 | 85 | 1010.4 |
| 20260902085504 | 13 | 217 | 1.6 | 1.6 | 0.00 | 0.00 | 0.00 | 84 | 1010.3 |
| 20260902085004 | 14 | 233 | 1.6 | 3.2 | 0.00 | 0.00 | 0.00 | 84 | 1010.5 |
| 20260902084504 | 14 | 217 | 1.6 | 3.2 | 0.00 | 0.00 | 0.00 | 83 | 1010.4 |
| 20260902084004 | 15 | 183 | 0.0 | 1.6 | 0.00 | 0.00 | 0.00 | 83 | 1010.4 |
| 20260902083504 | 15 | 183 | 0.0 | 3.2 | 0.00 | 0.00 | 0.00 | 83 | 1010.4 |
| 20260902083005 | 15 | 183 | 1.6 | 3.2 | 0.00 | 0.00 | 0.00 | 83 | 1010.5 |
| 20260902082504 | 15 | 192 | 1.6 | 4.8 | 0.00 | 0.00 | 0.00 | 83 | 1010.5 |
| 20260902082004 | 15 | 200 | 3.2 | 4.8 | 0.00 | 0.00 | 0.00 | 83 | 1010.5 |
| 20260902081504 | 15 | 185 | 3.2 | 9.7 | 0.00 | 0.00 | 0.00 | 83 | 1010.5 |
| 20260902081004 | 15 | 201 | 4.8 | 9.7 | 0.00 | 0.00 | 0.00 | 83 | 1010.7 |
| 20260902080004 | 15 | 210 | 6.4 | 11.3 | 0.00 | 0.00 | 0.00 | 82 | 1010.6 |
| 20260902075504 | 15 | 202 | 4.8 | 11.3 | 0.00 | 0.00 | 0.00 | 82 | 1010.7 |
| 20260902075004 | 15 | 203 | 4.8 | 9.7 | 0.00 | 0.00 | 0.00 | 82 | 1010.7 |
| 20260902074504 | 15 | 202 | 4.8 | 9.7 | 0.00 | 0.00 | 0.00 | 81 | 1010.6 |
| 20260902074004 | 16 | 346 | 4.8 | 12.9 | 0.00 | 0.00 | 0.00 | 81 | 1010.6 |
| 20260902073504 | 16 | 226 | 4.8 | 14.5 | 0.00 | 0.00 | 0.00 | 80 | 1010.6 |
| 20260902073004 | 16 | 201 | 9.7 | 14.5 | 0.00 | 0.00 | 0.00 | 80 | 1010.7 |
| 20260902072504 | 16 | 191 | 9.7 | 19.3 | 0.00 | 0.00 | 0.00 | 79 | 1010.8 |
| 20260902072004 | 16 | 161 | 9.7 | 24.1 | 0.00 | 0.00 | 0.00 | 78 | 1010.8 |
| 20260902071504 | 16 | 179 | 9.7 | 16.1 | 0.00 | 0.00 | 0.00 | 78 | 1010.9 |
| 20260902071004 | 16 | 191 | 4.8 | 14.5 | 0.00 | 0.00 | 0.00 | 78 | 1010.8 |
| 20260902070504 | 16 | 205 | 8.0 | 19.3 | 0.00 | 0.00 | 0.00 | 78 | 1010.9 |
| 20260902070006 | 16 | 188 | 9.7 | 19.3 | 0.00 | 0.00 | 0.00 | 77 | 1011.0 |
| 20260902065504 | 16 | 165 | 6.4 | 11.3 | 0.00 | 0.00 | 0.00 | 77 | 1011.0 |
| 20260902065005 | 16 | 192 | 8.0 | 14.5 | 0.00 | 0.00 | 0.00 | 77 | 1011.0 |
| 20260902064504 | 16 | 194 | 8.0 | 14.5 | 0.00 | 0.00 | 0.00 | 77 | 1011.1 |
| 20260902064004 | 16 | 204 | 4.8 | 11.3 | 0.00 | 0.00 | 0.00 | 77 | 1011.0 |
| 20260902063005 | 16 | 204 | 3.2 | 8.0 | 0.00 | 0.00 | 0.00 | 77 | 1011.0 |
| 20260902062504 | 16 | 194 | 3.2 | 8.0 | 0.00 | 0.00 | 0.00 | 77 | 1011.0 |
| 20260902062004 | 16 | 217 | 3.2 | 8.0 | 0.00 | 0.00 | 0.00 | 77 | 1011.0 |
| 20260902061005 | 16 | 204 | 3.2 | 9.7 | 0.00 | 0.00 | 0.00 | 78 | 1011.0 |
| 20260902060004 | 16 | 183 | 0.0 | 3.2 | 0.00 | 0.00 | 0.00 | 78 | 1010.9 |
| 20260902055503 | 16 | 182 | 1.6 | 3.2 | 0.00 | 0.00 | 0.00 | 78 | 1011.0 |
| 20260902055004 | 16 | 163 | 1.6 | 3.2 | 0.00 | 0.00 | 0.00 | 78 | 1011.1 |
| 20260902054004 | 16 | 178 | 1.6 | 3.2 | 0.00 | 0.00 | 0.00 | 78 | 1011.2 |
| 20260902053504 | 16 | 194 | 1.6 | 3.2 | 0.00 | 0.00 | 0.00 | 78 | 1011.1 |
| 20260902053004 | 16 | 221 | 3.2 | 3.2 | 0.00 | 0.00 | 0.00 | 77 | 1011.2 |
| 20260902052504 | 16 | 223 | 1.6 | 3.2 | 0.00 | 0.00 | 0.00 | 76 | 1011.2 |
| 20260902051503 | 16 | 196 | 1.6 | 3.2 | 0.00 | 0.00 | 0.00 | 76 | 1011.3 |
| 20260902051004 | 16 | 206 | 1.6 | 3.2 | 0.00 | 0.00 | 0.00 | 75 | 1011.3 |
| 20260902050504 | 16 | 293 | 1.6 | 3.2 | 0.00 | 0.00 | 0.00 | 75 | 1011.3 |
| 20260902050007 | 16 | 209 | 1.6 | 4.8 | 0.00 | 0.00 | 0.00 | 75 | 1011.3 |
| 20260902045504 | 16 | 185 | 3.2 | 9.7 | 0.00 | 0.00 | 0.00 | 74 | 1011.3 |
| 20260902044003 | 16 | 207 | 1.6 | 8.0 | 0.00 | 0.00 | 0.00 | 73 | 1011.3 |
| 20260902043504 | 16 | 218 | 3.2 | 4.8 | 0.00 | 0.00 | 0.00 | 73 | 1011.4 |
| 20260902043004 | 16 | 246 | 3.2 | 8.0 | 0.00 | 0.00 | 0.00 | 73 | 1011.5 |
| 20260902042004 | 16 | 244 | 3.2 | 9.7 | 0.00 | 0.00 | 0.00 | 73 | 1011.5 |
| 20260902041505 | 16 | 248 | 4.8 | 9.7 | 0.00 | 0.00 | 0.00 | 73 | 1011.5 |
| 20260902041004 | 16 | 263 | 4.8 | 11.3 | 0.00 | 0.00 | 0.00 | 73 | 1011.6 |
| 20260902040504 | 16 | 247 | 1.6 | 8.0 | 0.00 | 0.00 | 0.00 | 73 | 1011.6 |
| 20260902040004 | 16 | 338 | 1.6 | 4.8 | 0.00 | 0.00 | 0.00 | 73 | 1011.5 |
| 20260902035504 | 16 | 273 | 1.6 | 4.8 | 0.00 | 0.00 | 0.00 | 73 | 1011.5 |
| 20260902035004 | 17 | 0 | 3.2 | 4.8 | 0.00 | 0.00 | 0.00 | 73 | 1011.4 |
| 20260902034504 | 17 | 0 | 3.2 | 4.8 | 0.00 | 0.00 | 0.00 | 73 | 1011.3 |
| 20260902033504 | 17 | 229 | 4.8 | 8.0 | 0.00 | 0.00 | 0.00 | 72 | 1011.2 |
| 20260902033004 | 17 | 237 | 3.2 | 4.8 | 0.00 | 0.00 | 0.00 | 72 | 1011.3 |
| 20260902032503 | 17 | 233 | 3.2 | 9.7 | 0.00 | 0.00 | 0.00 | 71 | 1011.2 |
| 20260902032004 | 17 | 239 | 4.8 | 11.3 | 0.00 | 0.00 | 0.00 | 71 | 1011.2 |
| 20260902031503 | 17 | 230 | 6.4 | 11.3 | 0.00 | 0.00 | 0.00 | 70 | 1011.2 |
| 20260902031004 | 17 | 233 | 8.0 | 12.9 | 0.00 | 0.00 | 0.00 | 70 | 1011.2 |
| 20260902030503 | 17 | 208 | 3.2 | 8.0 | 0.00 | 0.00 | 0.00 | 70 | 1011.2 |
| 20260902030004 | 17 | 212 | 3.2 | 8.0 | 0.00 | 0.00 | 0.00 | 70 | 1011.3 |
| 20260902025504 | 18 | 225 | 4.8 | 12.9 | 0.00 | 0.00 | 0.00 | 69 | 1011.2 |
| 20260902025004 | 18 | 209 | 4.8 | 12.9 | 0.00 | 0.00 | 0.00 | 68 | 1011.2 |
| 20260902024504 | 18 | 199 | 6.4 | 14.5 | 0.00 | 0.00 | 0.00 | 68 | 1011.2 |
| 20260902023504 | 18 | 197 | 4.8 | 9.7 | 0.00 | 0.00 | 0.00 | 68 | 1011.2 |
| 20260902023003 | 18 | 190 | 3.2 | 4.8 | 0.00 | 0.00 | 0.00 | 67 | 1011.0 |
| 20260902022503 | 18 | 201 | 4.8 | 8.0 | 0.00 | 0.00 | 0.00 | 68 | 1011.0 |
| 20260902022003 | 18 | 202 | 3.2 | 11.3 | 0.00 | 0.00 | 0.00 | 67 | 1011.1 |
| 20260902021504 | 18 | 214 | 3.2 | 9.7 | 0.00 | 0.00 | 0.00 | 67 | 1011.1 |
| 20260902021004 | 18 | 228 | 4.8 | 11.3 | 0.00 | 0.00 | 0.00 | 67 | 1011.1 |
| 20260902015503 | 18 | 237 | 4.8 | 9.7 | 0.00 | 0.00 | 0.00 | 68 | 1011.0 |
| 20260902015004 | 18 | 232 | 1.6 | 9.7 | 0.00 | 0.00 | 0.00 | 70 | 1011.0 |
| 20260902014503 | 18 | 208 | 3.2 | 4.8 | 0.00 | 0.00 | 0.00 | 69 | 1011.0 |
| 20260902013503 | 18 | 221 | 4.8 | 8.0 | 0.00 | 0.00 | 0.00 | 70 | 1011.1 |
| 20260902013003 | 18 | 139 | 0.0 | 3.2 | 0.00 | 0.00 | 0.00 | 74 | 1011.0 |
| 20260902012504 | 18 | 134 | 1.6 | 3.2 | 0.00 | 0.00 | 0.00 | 75 | 1011.0 |
| 20260902012004 | 18 | 355 | 0.0 | 3.2 | 0.00 | 0.00 | 0.00 | 75 | 1010.9 |
| 20260902011504 | 18 | 323 | 1.6 | 3.2 | 0.00 | 0.00 | 0.00 | 75 | 1011.0 |
| 20260902005505 | 18 | 243 | 4.8 | 8.0 | 0.00 | 0.00 | 0.00 | 71 | 1010.9 |
| 20260902005005 | 18 | 212 | 8.0 | 16.1 | 0.00 | 0.00 | 0.00 | 72 | 1010.9 |
| 20260902004005 | 18 | 245 | 4.8 | 12.9 | 0.00 | 0.00 | 0.00 | 72 | 1010.8 |
| 20260902003505 | 18 | 245 | 6.4 | 11.3 | 0.00 | 0.00 | 0.00 | 72 | 1010.8 |
| 20260902002505 | 18 | 216 | 3.2 | 4.8 | 0.00 | 0.00 | 0.00 | 72 | 1010.8 |
| 20260902002005 | 18 | 196 | 1.6 | 3.2 | 0.00 | 0.00 | 0.00 | 71 | 1010.8 |
| 20260902001505 | 18 | 189 | 1.6 | 3.2 | 0.00 | 0.00 | 0.00 | 70 | 1010.8 |
| 20260902001005 | 18 | 271 | 1.6 | 4.8 | 0.00 | 0.00 | 0.00 | 71 | 1010.8 |
| 20260902000005 | 18 | 232 | 4.8 | 9.7 | 0.00 | 0.00 | 0.00 | 72 | 1010.8 |
| 20260901235505 | 18 | 326 | 3.2 | 11.3 | 0.00 | 0.00 | 0.00 | 74 | 1010.8 |
| 20260901235005 | 18 | 281 | 4.8 | 11.3 | 0.00 | 0.00 | 0.00 | 74 | 1010.8 |
| 20260901234505 | 18 | 263 | 8.0 | 12.9 | 0.00 | 0.00 | 0.00 | 73 | 1011.0 |
| 20260901234006 | 18 | 260 | 8.0 | 16.1 | 0.00 | 0.00 | 0.00 | 73 | 1011.0 |
| 20260901233505 | 18 | 278 | 4.8 | 16.1 | 0.00 | 0.00 | 0.00 | 73 | 1011.0 |
| 20260901233005 | 18 | 218 | 9.7 | 16.1 | 0.00 | 0.00 | 0.00 | 72 | 1011.1 |
| 20260901232505 | 18 | 228 | 11.3 | 19.3 | 0.00 | 0.00 | 0.00 | 72 | 1011.0 |
| 20260901231505 | 18 | 240 | 9.7 | 16.1 | 0.00 | 0.00 | 0.00 | 70 | 1011.0 |
| 20260901231005 | 19 | 244 | 8.0 | 20.9 | 0.00 | 0.00 | 0.00 | 69 | 1011.0 |
| 20260901230506 | 20 | 247 | 14.5 | 22.5 | 0.00 | 0.00 | 0.00 | 68 | 1011.0 |
| 20260901230005 | 20 | 209 | 8.0 | 20.9 | 0.00 | 0.00 | 0.00 | 66 | 1011.0 |
| 20260901225505 | 20 | 174 | 8.0 | 19.3 | 0.00 | 0.00 | 0.00 | 66 | 1011.0 |
| 20260901224505 | 20 | 182 | 11.3 | 20.9 | 0.00 | 0.00 | 0.00 | 66 | 1011.0 |
| 20260901224004 | 19 | 168 | 11.3 | 19.3 | 0.00 | 0.00 | 0.00 | 66 | 1011.0 |
| 20260901223505 | 19 | 191 | 4.8 | 11.3 | 0.00 | 0.00 | 0.00 | 68 | 1011.0 |
| 20260901223006 | 19 | 216 | 4.8 | 11.3 | 0.00 | 0.00 | 0.00 | 67 | 1011.1 |
| 20260901222505 | 19 | 199 | 8.0 | 16.1 | 0.00 | 0.00 | 0.00 | 67 | 1011.1 |
| 20260901222005 | 19 | 201 | 8.0 | 14.5 | 0.00 | 0.00 | 0.00 | 67 | 1011.1 |
| 20260901221505 | 19 | 207 | 6.4 | 14.5 | 0.00 | 0.00 | 0.00 | 66 | 1011.0 |
| 20260901221005 | 20 | 191 | 9.7 | 22.5 | 0.00 | 0.00 | 0.00 | 66 | 1011.0 |
| 20260901220505 | 20 | 173 | 11.3 | 16.1 | 0.00 | 0.00 | 0.00 | 66 | 1010.9 |
| 20260901220005 | 20 | 197 | 9.7 | 16.1 | 0.00 | 0.00 | 0.00 | 66 | 1010.9 |
| 20260901215504 | 20 | 177 | 8.0 | 16.1 | 0.00 | 0.00 | 0.00 | 67 | 1010.9 |